ATLAS 5 CENTAUR DEB, 43971

Orbit data source: Space-Track

ATLAS 5 CENTAUR DEB, 43971 is space debris in HEO originally from a launch on Wed, 17 Sep 2014 UTC launched from the Air Force Eastern Test Range (AFETR). Debris objects in space refer to the collection of defunct objects orbiting the Earth. Examples of debris include non-operational satellites, rocket bodies, and fragments generated from explosions, collisions, or faulty payload assembly.

Loading next visibility...
Identifier
43971, 2014-055AA
Orbit
HEO
Last TLE update
6 months ago
Origin
Manufacturer
Unknown
Mission
Spacecraft
Bus & Motor
Unknown
Mass
Unknown
Launch date (UTC)
2014-09-17 (11 years ago)
Launch vehicle
Unknown
Launch site
Air Force Eastern Test Range (AFETR)
Object type
Payload
Rocket body
Debris
Shape & HBR
Unknown
Radar Cross Section
Small (<0.1 m²)

Expand to show TLE details & history

TLE from 6 months ago
0 ATLAS 5 CENTAUR DEB
1 43971U 14055AA  24304.41942266 -.00000061  00000-0  00000+0 0  9993
2 43971  19.8828 213.9990 4721697  46.4486 344.1621  1.85585364 41723
Epoch: 2024-10-30T10:03Z
Definitive object data (Epoch: 2024-10-30T10:03:58.117Z)
Latitude
-0.00004°
Longitude
23.83942°
Altitude
10,012.899 km
Speed
5.864 km/s
True Right ascension
14h 16m 11s
True Declination
0° 00' 00"
Sunlit
Object was in daylight at TLE epoch
Visualization TLE readout
Latitude
-3.32544°
Longitude
-165.11286°
Altitude
19,936.465 km
Speed
4.006 km/s
Apparent Right ascension
01h 50m 10s
Apparent Declination
-10° 13' 33"
Sunlit
Object is in daylight
Visualization observer readout
Local Sidereal Time
14:43:10
Azimuth
25.235° NE
Elevation
-58.063°
Doppler factor
1
Orbital elements
Apogee altitude
34,802.557 km
Perigee altitude
8,386.749 km
Semi-major axis
27,972.79 km
Eccentricity
0.4721697
Inclination
19.8828°
RAAN
213.999°
Arg. of periapsis
46.4486°
True anomaly
313.39905°
Mean anomaly
344.1621°
Eccentric anomaly
331.07904°
Mean motion
0.46392 °/min
BSTAR
Unknown
Orbital period
776 mins
Loading maneuver chart data...
Loading SW <> Apogee altitude chart data...
Loading historical data...
Loading historical data...
Loading historical data...
Loading historical data...
Loading historical data...
Loading historical data...
Loading historical data...

ATLAS 5 CENTAUR DEB Visibility forecast

Observer location: undefined°, undefined°

Span
Click to sort rows by Start time (UTC) header in descending order
Start Az.
Max El. time (UTC)
Max El. Az.
Max El.
End time (UTC)
End Az.
732 mins2025-05-09 18:18:19.034Z259.271° W2025-05-10 05:48:19.034Z159.83° S32.933°2025-05-10 06:30:19.034Z93.848° ESE
|